EW0890 Weather Reports


time (UTC)temp
F
wind
direction
speed
knots
gust
knots
rain 1hr
in
rain 24hr
in
rain mn
in
humidity
%
barometer
mb
20260507175004 62 256 14.8 21.7 0.00 0.00 0.00 38 1013.0
20260507174511 62 218 14.8 21.7 0.00 0.00 0.00 36 1013.1
20260507174004 62 255 16.5 21.7 0.00 0.00 0.00 37 1013.3
20260507173505 61 258 11.3 21.7 0.00 0.00 0.00 38 1013.3
20260507173016 60 251 13.9 21.7 0.00 0.00 0.00 41 1013.4
20260507172506 60 260 15.6 22.6 0.00 0.00 0.00 41 1013.4
20260507172008 61 229 16.5 22.6 0.00 0.00 0.00 38 1013.5
20260507171520 60 259 13.0 21.7 0.00 0.00 0.00 37 1013.7
20260507171007 60 229 13.9 20.9 0.00 0.00 0.00 37 1013.9
20260507170507 60 240 15.6 20.0 0.00 0.00 0.00 38 1013.8
20260507170024 60 229 13.9 18.2 0.00 0.00 0.00 39 1013.8
20260507165506 60 261 13.0 20.0 0.00 0.00 0.00 37 1013.9
20260507165008 60 232 16.5 20.0 0.00 0.00 0.00 37 1013.9
20260507164524 61 225 12.2 20.0 0.00 0.00 0.00 36 1014.0
20260507164004 60 238 12.2 20.9 0.00 0.00 0.00 38 1014.1
20260507163505 60 248 14.8 20.9 0.00 0.00 0.00 37 1014.2
20260507163012 59 238 12.2 20.0 0.00 0.00 0.00 40 1014.3
20260507162506 59 259 13.0 20.0 0.00 0.00 0.00 37 1014.4
20260507162005 59 255 13.9 20.0 0.00 0.00 0.00 37 1014.5
20260507161533 60 250 13.9 20.0 0.00 0.00 0.00 36 1014.4
20260507161008 59 245 13.9 19.1 0.00 0.00 0.00 39 1014.4
20260507160509 59 250 10.4 19.1 0.00 0.00 0.00 40 1014.4
20260507160033 59 225 13.0 18.2 0.00 0.00 0.00 41 1014.5
20260507155507 58 240 12.2 20.0 0.00 0.00 0.00 41 1014.7
20260507155010 58 257 12.2 20.0 0.00 0.00 0.00 42 1014.7
20260507154532 58 252 13.9 20.0 0.00 0.00 0.00 41 1014.9
20260507154010 58 252 13.9 19.1 0.00 0.00 0.00 40 1014.9
20260507153508 58 252 11.3 19.1 0.00 0.00 0.00 43 1014.9
20260507153026 57 245 13.9 24.3 0.00 0.00 0.00 44 1015.0
20260507152506 56 259 13.9 24.3 0.00 0.00 0.00 42 1015.2
20260507152004 56 258 10.4 17.4 0.00 0.00 0.00 42 1015.2
20260507151532 56 264 12.2 18.2 0.00 0.00 0.00 44 1015.1
20260507151007 56 256 13.0 19.1 0.00 0.00 0.00 45 1015.1
20260507150504 56 264 11.3 19.1 0.00 0.00 0.00 45 1015.1
20260507150022 56 252 12.2 17.4 0.00 0.00 0.00 44 1015.1
20260507145507 56 241 13.0 17.4 0.00 0.00 0.00 42 1015.2
20260507145007 56 240 11.3 15.6 0.00 0.00 0.00 45 1015.2
20260507144521 55 269 11.3 15.6 0.00 0.00 0.00 45 1015.3
20260507144008 55 241 11.3 15.6 0.00 0.00 0.00 47 1015.3
20260507143507 55 233 11.3 13.9 0.00 0.00 0.00 48 1015.4
20260507143006 55 266 12.2 14.8 0.00 0.00 0.00 49 1015.4
20260507142504 54 243 10.4 14.8 0.00 0.00 0.00 50 1015.5
20260507142005 54 243 10.4 13.9 0.00 0.00 0.00 51 1015.5
20260507141512 53 235 11.3 14.8 0.00 0.00 0.00 52 1015.6
20260507141007 53 252 11.3 14.8 0.00 0.00 0.00 50 1015.7
20260507140505 53 231 10.4 13.9 0.00 0.00 0.00 50 1015.6
20260507140019 53 228 9.6 13.9 0.00 0.00 0.00 50 1015.6
20260507135508 53 222 9.6 13.0 0.00 0.00 0.00 55 1015.6
20260507135009 52 227 7.8 12.2 0.00 0.00 0.00 55 1015.7
20260507134529 52 219 8.7 12.2 0.00 0.00 0.00 56 1015.8
20260507134007 52 235 7.8 11.3 0.00 0.00 0.00 53 1015.9
20260507133510 51 251 7.8 10.4 0.00 0.00 0.00 54 1015.8
20260507133022 51 225 7.8 9.6 0.00 0.00 0.00 56 1015.8
20260507132503 51 236 6.1 8.7 0.00 0.00 0.00 55 1015.8
20260507132003 50 217 6.1 8.7 0.00 0.00 0.00 59 1015.9
20260507131517 50 232 5.2 7.8 0.00 0.00 0.00 59 1015.9
20260507131004 49 247 5.2 7.8 0.00 0.00 0.00 59 1015.9
20260507130508 49 230 6.1 7.0 0.00 0.00 0.00 60 1016.0
20260507130013 49 238 5.2 7.0 0.00 0.00 0.00 62 1016.0
20260507125505 48 224 5.2 7.0 0.00 0.00 0.00 64 1016.0
20260507125012 48 240 4.3 5.2 0.00 0.00 0.00 68 1016.0
20260507124515 47 258 4.3 5.2 0.00 0.00 0.00 68 1016.0
20260507124005 47 236 4.3 5.2 0.00 0.00 0.00 69 1016.0
20260507123506 46 241 4.3 5.2 0.00 0.00 0.00 73 1016.0
20260507123021 46 229 4.3 5.2 0.00 0.00 0.00 72 1015.8
20260507122511 45 236 3.5 5.2 0.00 0.00 0.00 74 1015.8
20260507122012 44 227 3.5 5.2 0.00 0.00 0.00 74 1015.6
20260507121526 44 225 4.3 5.2 0.00 0.00 0.00 74 1015.6
20260507121003 43 202 3.5 4.3 0.00 0.00 0.00 77 1015.5
20260507120507 42 219 2.6 4.3 0.00 0.00 0.00 80 1015.5
20260507120011 41 213 2.6 3.5 0.00 0.00 0.00 82 1015.4
20260507115504 40 206 1.7 2.6 0.00 0.00 0.00 85 1015.5
20260507115007 39 205 1.7 2.6 0.00 0.00 0.00 87 1015.6
20260507114524 39 204 0.9 2.6 0.00 0.00 0.00 88 1015.5
20260507114006 38 201 1.7 2.6 0.00 0.00 0.00 88 1015.5
20260507113506 38 172 0.9 1.7 0.00 0.00 0.00 88 1015.5
20260507113020 37 169 0.9 1.7 0.00 0.00 0.00 88 1015.3
20260507112507 37 168 0.0 0.9 0.00 0.00 0.00 88 1015.3
20260507112007 37 207 0.0 0.0 0.00 0.00 0.00 86 1015.3
20260507111524 37 207 0.0 0.0 0.00 0.00 0.00 85 1015.3
20260507111008 37 207 0.0 0.0 0.00 0.00 0.00 84 1015.3
20260507110508 37 207 0.0 0.0 0.00 0.00 0.00 84 1015.3
20260507110035 37 207 0.0 0.0 0.00 0.00 0.00 84 1015.3
20260507105507 37 207 0.0 0.0 0.00 0.00 0.00 83 1015.2
20260507105003 38 223 0.0 0.0 0.00 0.00 0.00 82 1015.2
20260507104515 38 224 0.0 0.0 0.00 0.00 0.00 82 1015.2
20260507104006 38 225 0.0 0.0 0.00 0.00 0.00 81 1015.2
20260507103504 38 224 0.0 0.0 0.00 0.00 0.00 82 1015.2
20260507103026 38 193 0.0 0.0 0.00 0.00 0.00 84 1015.2
20260507102506 38 236 0.0 0.0 0.00 0.00 0.00 84 1015.3
20260507102007 38 232 0.0 0.0 0.00 0.00 0.00 84 1015.4
20260507101522 38 232 0.0 0.0 0.00 0.00 0.00 85 1015.3
20260507101009 38 238 0.0 0.0 0.00 0.00 0.00 85 1015.4
20260507100507 38 236 0.0 0.0 0.00 0.00 0.00 84 1015.4
20260507100029 39 236 0.0 0.0 0.00 0.00 0.00 84 1015.3
20260507095507 39 235 0.0 0.0 0.00 0.00 0.00 84 1015.4
20260507095008 39 236 0.0 0.0 0.00 0.00 0.00 83 1015.4
20260507094528 40 246 0.0 0.0 0.00 0.00 0.00 82 1015.4
20260507094010 40 246 0.0 0.0 0.00 0.00 0.00 82 1015.4
20260507093503 40 246 0.0 0.0 0.00 0.00 0.00 81 1015.3
20260507093017 40 246 0.0 0.0 0.00 0.00 0.00 81 1015.3
20260507092503 40 246 0.0 0.0 0.00 0.00 0.00 81 1015.4
20260507092006 40 245 0.0 0.0 0.00 0.00 0.00 82 1015.4
20260507091519 40 261 0.0 0.0 0.00 0.00 0.00 82 1015.5
20260507091009 40 261 0.0 0.0 0.00 0.00 0.00 82 1015.5
20260507090507 40 261 0.0 0.0 0.00 0.00 0.00 83 1015.5
20260507090035 40 261 0.0 0.0 0.00 0.00 0.00 83 1015.6
20260507085508 40 261 0.0 0.0 0.00 0.00 0.00 83 1015.6
20260507085008 40 261 0.0 0.0 0.00 0.00 0.00 83 1015.7
20260507084537 40 260 0.0 0.0 0.00 0.00 0.00 83 1015.7
20260507084008 40 261 0.0 0.0 0.00 0.00 0.00 83 1015.7
20260507083508 40 261 0.0 0.0 0.00 0.00 0.00 84 1015.7
20260507083026 40 261 0.0 0.0 0.00 0.00 0.00 84 1015.7
20260507082508 40 261 0.0 0.0 0.00 0.00 0.00 84 1015.7
20260507082003 40 260 0.0 0.0 0.00 0.00 0.00 84 1015.7
20260507081515 40 261 0.0 0.0 0.00 0.00 0.00 83 1015.6
20260507081006 40 261 0.0 0.0 0.00 0.00 0.00 83 1015.6
20260507080506 40 261 0.0 0.0 0.00 0.00 0.00 83 1015.6
20260507080019 40 265 0.0 0.0 0.00 0.00 0.00 83 1015.7
20260507075508 39 248 0.0 0.0 0.00 0.00 0.00 84 1015.7
20260507075010 39 248 0.0 0.0 0.00 0.00 0.00 84 1015.7
20260507074537 39 248 0.0 0.0 0.00 0.00 0.00 84 1015.7
20260507074008 39 248 0.0 0.0 0.00 0.00 0.00 84 1015.8
20260507073507 39 248 0.0 0.9 0.00 0.00 0.00 83 1015.7
20260507073025 39 248 0.0 0.9 0.00 0.00 0.00 82 1015.8
20260507072510 39 248 0.0 1.7 0.00 0.00 0.00 82 1015.8
20260507072012 39 247 0.9 1.7 0.00 0.00 0.00 81 1015.9
20260507071527 39 264 1.7 1.7 0.00 0.00 0.00 80 1015.9
20260507071008 39 267 0.9 1.7 0.00 0.00 0.00 80 1015.9
20260507070510 39 271 0.9 1.7 0.00 0.00 0.00 79 1015.9
20260507070016 39 273 0.9 1.7 0.00 0.00 0.00 78 1015.9
20260507065508 39 281 1.7 1.7 0.00 0.00 0.00 79 1015.9
20260507065007 39 268 0.9 1.7 0.00 0.00 0.00 79 1015.9
20260507064521 39 280 0.9 1.7 0.00 0.00 0.00 79 1015.9
20260507064007 38 280 0.9 1.7 0.00 0.00 0.00 80 1016.0
20260507063510 38 249 0.0 1.7 0.00 0.00 0.00 80 1016.0
20260507063025 38 266 0.0 0.9 0.00 0.00 0.00 80 1015.9
20260507062508 38 266 0.0 0.9 0.00 0.00 0.00 80 1015.9
20260507061527 39 275 0.0 0.9 0.00 0.00 0.00 80 1016.0
20260507061009 38 283 0.0 0.9 0.00 0.00 0.00 80 1016.0
20260507060508 38 283 0.0 0.0 0.00 0.00 0.00 81 1016.0
20260507060027 38 272 0.0 0.0 0.00 0.00 0.00 82 1016.0
20260507055511 38 272 0.0 0.9 0.00 0.00 0.00 81 1016.1
20260507055009 39 272 0.0 0.9 0.00 0.00 0.00 79 1016.1
20260507054515 39 272 0.0 1.7 0.00 0.00 0.00 78 1016.1
20260507053506 39 272 0.9 1.7 0.00 0.00 0.00 79 1016.1
20260507053021 38 272 0.0 0.0 0.00 0.00 0.00 81 1016.1
20260507052508 38 273 0.0 0.0 0.00 0.00 0.00 82 1016.1
20260507051534 39 267 0.0 0.0 0.00 0.00 0.00 83 1016.2
20260507050028 39 266 0.0 0.0 0.00 0.00 0.00 82 1016.2
20260507045510 39 266 0.0 0.0 0.00 0.00 0.00 82 1016.1
20260507045010 40 266 0.0 0.0 0.00 0.00 0.00 81 1016.1
20260507044527 40 266 0.0 0.0 0.00 0.00 0.00 81 1016.1
20260507044009 40 270 0.0 0.0 0.00 0.00 0.00 80 1016.0
20260507043510 39 287 0.0 0.0 0.00 0.00 0.00 80 1016.1
20260507043025 39 287 0.0 0.0 0.00 0.00 0.00 81 1016.1
20260507042506 39 287 0.0 0.0 0.00 0.00 0.00 81 1016.2
20260507041523 39 287 0.0 0.9 0.00 0.00 0.00 80 1016.2
20260507041003 39 287 0.0 0.9 0.00 0.00 0.00 80 1016.2
20260507040503 39 287 0.0 0.9 0.00 0.00 0.00 81 1016.2
20260507040006 39 287 0.0 0.0 0.00 0.00 0.00 81 1016.2
20260507035503 39 287 0.0 0.0 0.00 0.00 0.00 81 1016.2
20260507035003 39 287 0.0 0.0 0.00 0.00 0.00 81 1016.2
20260507034512 40 286 0.0 0.0 0.00 0.00 0.00 81 1016.2
20260507033019 41 287 0.0 0.0 0.00 0.00 0.00 77 1016.2
20260507031519 43 287 0.0 0.9 0.00 0.00 0.00 74 1016.4
20260507030511 44 287 0.0 1.7 0.00 0.00 0.00 68 1016.4
20260507030024 44 276 0.9 0.9 0.00 0.00 0.00 68 1016.4
20260507025505 44 277 0.0 0.9 0.00 0.00 0.00 69 1016.3
20260507025003 44 277 0.0 1.7 0.00 0.00 0.00 69 1016.2
20260507024508 44 277 0.0 1.7 0.00 0.00 0.00 69 1016.3
20260507024004 44 273 0.0 0.9 0.00 0.00 0.00 68 1016.2
20260507023010 44 290 0.0 0.9 0.00 0.00 0.00 67 1016.2
20260507022006 45 288 0.0 0.9 0.00 0.00 0.00 66 1016.1
20260507021007 45 315 0.0 1.7 0.00 0.00 0.00 65 1016.0
20260507015511 47 311 0.9 2.6 0.00 0.00 0.00 62 1015.7
20260507014004 48 321 0.9 4.3 0.00 0.00 0.00 59 1015.6
20260507013503 48 305 0.9 4.3 0.00 0.00 0.00 58 1015.6
20260507013007 48 331 0.9 3.5 0.00 0.00 0.00 58 1015.5
20260507012503 49 307 0.9 3.5 0.00 0.00 0.00 57 1015.4
20260507011526 49 243 1.7 4.3 0.00 0.00 0.00 58 1015.3
20260507010506 50 353 0.9 2.6 0.00 0.00 0.00 56 1015.2
20260507010019 50 323 0.9 2.6 0.00 0.00 0.00 54 1015.2
20260507005507 51 276 0.0 2.6 0.00 0.00 0.00 53 1015.2
20260507005008 52 321 0.9 3.5 0.00 0.00 0.00 52 1015.1
20260507004522 52 310 0.9 3.5 0.00 0.00 0.00 53 1015.0
20260507003022 53 321 1.7 3.5 0.00 0.00 0.00 48 1014.9
20260507002504 54 348 0.9 4.3 0.00 0.00 0.00 48 1014.9
20260507002003 54 282 0.9 5.2 0.00 0.00 0.00 47 1014.8
20260507001508 54 280 0.9 5.2 0.00 0.00 0.00 46 1014.8
20260507001004 55 335 0.9 8.7 0.00 0.00 0.00 45 1014.8
20260507000503 55 330 1.7 8.7 0.00 0.00 0.00 45 1014.7
20260507000015 55 249 1.7 6.1 0.00 0.00 0.00 45 1014.8
20260506235504 55 326 0.9 6.1 0.00 0.00 0.00 44 1014.9
20260506235007 55 285 1.7 7.0 0.00 0.00 0.00 44 1014.9
20260506234008 55 316 1.7 7.8 0.00 0.00 0.00 44 1014.9
20260506233506 55 300 3.5 11.3 0.00 0.00 0.00 46 1014.9
20260506232011 56 288 8.7 11.3 0.00 0.00 0.00 40 1014.8
20260506231005 57 281 1.7 7.8 0.00 0.00 0.00 42 1014.9
20260506230503 57 320 0.9 9.6 0.00 0.00 0.00 41 1014.9
20260506230015 57 276 1.7 9.6 0.00 0.00 0.00 44 1014.8
20260506225503 57 321 1.7 13.0 0.00 0.00 0.00 44 1014.9
20260506225004 58 288 1.7 14.8 0.00 0.00 0.00 42 1014.8
20260506224007 58 319 3.5 10.4 0.00 0.00 0.00 43 1014.5
20260506223504 57 319 2.6 13.0 0.00 0.00 0.00 43 1014.5
20260506223021 57 282 9.6 13.0 0.00 0.00 0.00 40 1014.4
20260506222509 57 305 7.8 12.2 0.00 0.00 0.00 40 1014.4
20260506222009 58 292 5.2 12.2 0.00 0.00 0.00 44 1014.4
20260506221522 58 275 8.7 11.3 0.00 0.00 0.00 41 1014.3
20260506221010 58 351 2.6 7.0 0.00 0.00 0.00 44 1014.3
20260506220510 56 304 0.9 7.0 0.00 0.00 0.00 49 1014.4
20260506220026 56 265 3.5 6.1 0.00 0.00 0.00 45 1014.4
20260506215506 56 319 1.7 6.1 0.00 0.00 0.00 45 1014.4
20260506215002 56 323 1.7 11.3 0.00 0.00 0.00 44 1014.6
20260506214518 56 328 4.3 11.3 0.00 0.00 0.00 48 1014.5
20260506214007 56 331 3.5 9.6 0.00 0.00 0.00 48 1014.5
20260506213506 56 333 1.7 9.6 0.00 0.00 0.00 44 1014.6
20260506212507 56 305 8.7 13.0 0.00 0.00 0.00 43 1014.6
20260506212007 56 335 0.9 13.0 0.00 0.00 0.00 47 1014.6
20260506211521 56 318 7.0 13.0 0.00 0.00 0.00 42 1014.6
20260506211007 57 269 3.5 11.3 0.00 0.00 0.00 47 1014.6
20260506210510 57 291 5.2 8.7 0.00 0.00 0.00 40 1014.5
20260506210025 57 298 1.7 10.4 0.00 0.00 0.00 44 1014.6
20260506205511 57 334 1.7 10.4 0.00 0.00 0.00 46 1014.4
20260506205011 57 271 1.7 9.6 0.00 0.00 0.00 50 1014.5
20260506204526 57 350 0.9 14.8 0.00 0.00 0.00 46 1014.5
20260506204003 56 267 7.8 14.8 0.00 0.00 0.00 44 1014.6
20260506203502 56 271 7.0 15.6 0.00 0.00 0.00 43 1014.7
20260506203015 57 287 7.8 15.6 0.00 0.00 0.00 47 1014.8
20260506202506 57 317 6.1 15.6 0.00 0.00 0.00 47 1014.7
20260506202007 57 328 2.6 6.1 0.00 0.00 0.00 49 1014.8
20260506201525 57 320 1.7 17.4 0.00 0.01 0.00 46 1014.8
20260506201006 57 319 2.6 17.4 0.00 0.01 0.00 50 1014.9
20260506200509 57 263 9.6 15.6 0.00 0.01 0.00 46 1014.8
20260506200023 58 321 2.6 7.0 0.00 0.01 0.00 48 1014.9
20260506195509 57 319 0.9 9.6 0.00 0.01 0.00 50 1014.7
20260506195010 57 286 1.7 9.6 0.00 0.01 0.00 49 1014.7
20260506194524 57 330 1.7 12.2 0.00 0.02 0.00 53 1014.8
20260506194008 56 279 2.6 12.2 0.00 0.02 0.00 52 1014.8
20260506193510 56 274 2.6 7.0 0.00 0.03 0.00 53 1015.0
20260506193028 56 323 2.6 9.6 0.00 0.03 0.00 51 1014.9
20260506192506 56 323 2.6 12.2 0.00 0.04 0.00 49 1014.9
20260506192002 56 268 6.1 12.2 0.00 0.04 0.00 54 1014.9
20260506191510 56 302 4.3 12.2 0.00 0.04 0.00 52 1015.0
20260506191004 56 316 1.7 8.7 0.00 0.04 0.00 52 1015.0
20260506190505 56 343 3.5 11.3 0.00 0.04 0.00 54 1015.0
20260506190008 56 304 6.1 11.3 0.00 0.04 0.00 49 1015.0
20260506184002 56 293 4.3 8.7 0.00 0.04 0.00 51 1015.1
20260506183506 56 311 1.7 4.3 0.00 0.04 0.00 56 1014.9
20260506183011 56 295 2.6 5.2 0.00 0.04 0.00 52 1014.9
20260506182503 56 302 0.9 7.0 0.00 0.04 0.00 54 1014.9
20260506182004 55 331 1.7 7.0 0.00 0.04 0.00 54 1014.9
20260506181511 56 284 4.3 7.0 0.00 0.04 0.00 56 1015.0
20260506181004 56 65 1.7 13.0 0.00 0.04 0.00 57 1015.0
20260506180506 56 281 7.8 13.0 0.00 0.04 0.00 53 1015.0
20260506180012 55 290 7.0 14.8 0.00 0.04 0.00 56 1015.1
20260506175504 55 282 6.1 14.8 0.00 0.04 0.00 49 1015.1